EN

Hourly Weather Alvaro Obregon

Today, 20 January, Wednesday

Time Temperature Precipitation Wind Pressure Humidity
00:00 +13°C° 0 mm 1 mps 564 mmHg 67%
01:00 +13°C° 0 mm 1 mps 564 mmHg 70%
02:00 +12°C° 0 mm 1 mps 563 mmHg 72%
03:00 +12°C° 0 mm 1 mps 563 mmHg 76%
04:00 +11°C° 0 mm 1 mps 563 mmHg 79%
05:00 +11°C° 0 mm 1 mps 563 mmHg 82%
06:00 +11°C° 0 mm 1 mps 563 mmHg 80%
07:00 +11°C° 0 mm 1 mps 564 mmHg 78%
08:00 +12°C° 0 mm 1 mps 564 mmHg 76%
09:00 +13°C° 0 mm 1 mps 565 mmHg 68%
10:00 +15°C° 0 mm 2 mps 565 mmHg 60%
11:00 +17°C° 0 mm 2 mps 566 mmHg 51%
12:00 +18°C° 0 mm 2 mps 566 mmHg 48%
13:00 +19°C° 0 mm 2 mps 565 mmHg 45%
14:00 +20°C° 0 mm 2 mps 565 mmHg 42%
15:00 +19°C° 0 mm 2 mps 565 mmHg 46%
16:00 +18°C° 0 mm 3 mps 565 mmHg 50%
17:00 +17°C° 0 mm 3 mps 564 mmHg 54%
18:00 +16°C° 0 mm 3 mps 564 mmHg 60%
19:00 +15°C° 0 mm 2 mps 564 mmHg 66%
20:00 +14°C° 0 mm 2 mps 564 mmHg 72%
21:00 +13°C° 0.1 mm 1 mps 564 mmHg 74%
22:00 +13°C° 0.1 mm 1 mps 564 mmHg 77%
23:00 +13°C° 0.1 mm 1 mps 564 mmHg 79%

Tomorrow, 21 January, Thursday

Time Temperature Precipitation Wind Pressure Humidity
00:00 +12°C° 0 mm 1 mps 564 mmHg 80%
01:00 +12°C° 0 mm 1 mps 564 mmHg 82%
02:00 +12°C° 0 mm 1 mps 563 mmHg 83%
03:00 +12°C° 0 mm 1 mps 563 mmHg 83%
04:00 +12°C° 0 mm 1 mps 563 mmHg 83%
05:00 +12°C° 0 mm 1 mps 563 mmHg 83%
06:00 +12°C° 0 mm 1 mps 564 mmHg 79%
07:00 +12°C° 0 mm 0 mps 564 mmHg 75%
08:00 +13°C° 0 mm 0 mps 565 mmHg 72%
09:00 +15°C° 0 mm 0 mps 565 mmHg 61%
10:00 +19°C° 0 mm 1 mps 566 mmHg 50%
11:00 +21°C° 0 mm 1 mps 567 mmHg 40%
12:00 +22°C° 0 mm 1 mps 566 mmHg 36%
13:00 +22°C° 0 mm 1 mps 566 mmHg 32%
14:00 +23°C° 0 mm 1 mps 565 mmHg 28%
15:00 +21°C° 0 mm 2 mps 565 mmHg 33%
16:00 +20°C° 0 mm 2 mps 564 mmHg 38%
17:00 +19°C° 0 mm 2 mps 564 mmHg 42%
18:00 +18°C° 0 mm 2 mps 563 mmHg 47%
19:00 +16°C° 0 mm 2 mps 563 mmHg 52%
20:00 +15°C° 0 mm 1 mps 563 mmHg 57%
21:00 +15°C° 0 mm 1 mps 563 mmHg 58%
22:00 +14°C° 0 mm 1 mps 563 mmHg 60%
23:00 +14°C° 0 mm 1 mps 563 mmHg 61%

Day after tomorrow, 22 January, Friday

Time Temperature Precipitation Wind Pressure Humidity
00:00 +14°C° 0 mm 1 mps 562 mmHg 62%
01:00 +13°C° 0 mm 1 mps 562 mmHg 63%
02:00 +13°C° 0 mm 1 mps 562 mmHg 64%
03:00 +12°C° 0 mm 0 mps 562 mmHg 64%
04:00 +11°C° 0 mm 0 mps 562 mmHg 64%
05:00 +11°C° 0 mm 0 mps 562 mmHg 64%
06:00 +12°C° 0 mm 0 mps 563 mmHg 60%
07:00 +13°C° 0 mm 0 mps 563 mmHg 56%
08:00 +14°C° 0 mm 0 mps 564 mmHg 52%
09:00 +16°C° 0 mm 0 mps 565 mmHg 46%
10:00 +20°C° 0 mm 1 mps 565 mmHg 40%
11:00 +21°C° 0 mm 1 mps 566 mmHg 34%
12:00 +22°C° 0 mm 1 mps 565 mmHg 32%
13:00 +23°C° 0 mm 1 mps 565 mmHg 29%
14:00 +23°C° 0 mm 1 mps 564 mmHg 27%
15:00 +22°C° 0 mm 1 mps 564 mmHg 30%
16:00 +21°C° 0 mm 1 mps 563 mmHg 34%
17:00 +19°C° 0 mm 2 mps 563 mmHg 37%
18:00 +18°C° 0 mm 2 mps 563 mmHg 42%
19:00 +17°C° 0 mm 2 mps 563 mmHg 47%
20:00 +16°C° 0 mm 2 mps 563 mmHg 52%
21:00 +15°C° 0 mm 1 mps 563 mmHg 53%
22:00 +15°C° 0 mm 1 mps 563 mmHg 55%
23:00 +15°C° 0 mm 1 mps 563 mmHg 56%

23 January, Saturday

Time Temperature Precipitation Wind Pressure Humidity
00:00 +14°C° 0 mm 1 mps 562 mmHg 57%
01:00 +13°C° 0 mm 0 mps 562 mmHg 58%
02:00 +13°C° 0 mm 0 mps 562 mmHg 58%
03:00 +13°C° 0 mm 0 mps 562 mmHg 59%
04:00 +12°C° 0 mm 0 mps 562 mmHg 60%
05:00 +12°C° 0 mm 0 mps 562 mmHg 61%
06:00 +13°C° 0 mm 0 mps 563 mmHg 58%
07:00 +14°C° 0 mm 0 mps 563 mmHg 55%
08:00 +15°C° 0 mm 0 mps 564 mmHg 52%
09:00 +16°C° 0 mm 0 mps 564 mmHg 46%
10:00 +20°C° 0 mm 1 mps 565 mmHg 40%
11:00 +21°C° 0 mm 1 mps 565 mmHg 34%
12:00 +22°C° 0 mm 1 mps 565 mmHg 32%
13:00 +22°C° 0 mm 1 mps 565 mmHg 30%
14:00 +23°C° 0 mm 2 mps 564 mmHg 28%
15:00 +21°C° 0 mm 2 mps 564 mmHg 31%
16:00 +20°C° 0 mm 2 mps 563 mmHg 35%
17:00 +19°C° 0 mm 2 mps 563 mmHg 38%
18:00 +18°C° 0 mm 2 mps 563 mmHg 42%
19:00 +17°C° 0 mm 2 mps 563 mmHg 45%
20:00 +16°C° 0 mm 2 mps 563 mmHg 49%
21:00 +16°C° 0 mm 1 mps 563 mmHg 49%
22:00 +15°C° 0 mm 1 mps 562 mmHg 50%
23:00 +15°C° 0 mm 1 mps 562 mmHg 50%

24 January, Sunday

Time Temperature Precipitation Wind Pressure Humidity
00:00 +14°C° 0 mm 1 mps 562 mmHg 51%
01:00 +14°C° 0 mm 1 mps 562 mmHg 51%
02:00 +14°C° 0 mm 1 mps 561 mmHg 51%
03:00 +13°C° 0 mm 1 mps 561 mmHg 51%
04:00 +13°C° 0 mm 1 mps 561 mmHg 51%
05:00 +13°C° 0 mm 1 mps 561 mmHg 51%
06:00 +14°C° 0 mm 1 mps 562 mmHg 48%
07:00 +14°C° 0 mm 0 mps 563 mmHg 45%
08:00 +15°C° 0 mm 0 mps 564 mmHg 42%
09:00 +19°C° 0 mm 1 mps 564 mmHg 37%
10:00 +20°C° 0 mm 1 mps 565 mmHg 32%
11:00 +22°C° 0 mm 1 mps 565 mmHg 27%
12:00 +22°C° 0 mm 1 mps 565 mmHg 26%
13:00 +23°C° 0 mm 2 mps 564 mmHg 24%
14:00 +23°C° 0 mm 2 mps 564 mmHg 23%
15:00 +21°C° 0 mm 2 mps 563 mmHg 27%
16:00 +20°C° 0 mm 2 mps 563 mmHg 30%
17:00 +19°C° 0 mm 3 mps 562 mmHg 34%
18:00 +18°C° 0 mm 2 mps 562 mmHg 38%
19:00 +16°C° 0 mm 2 mps 562 mmHg 41%
20:00 +15°C° 0 mm 2 mps 562 mmHg 45%
21:00 +15°C° 0 mm 2 mps 562 mmHg 47%
22:00 +14°C° 0 mm 2 mps 562 mmHg 49%
23:00 +14°C° 0 mm 1 mps 561 mmHg 52%

25 January, Monday

Time Temperature Precipitation Wind Pressure Humidity
00:00 +14°C° 0 mm 1 mps 561 mmHg 54%
01:00 +13°C° 0 mm 1 mps 561 mmHg 55%
02:00 +13°C° 0 mm 1 mps 561 mmHg 57%
03:00 +13°C° 0 mm 1 mps 561 mmHg 58%
04:00 +12°C° 0 mm 1 mps 561 mmHg 58%
05:00 +12°C° 0 mm 1 mps 560 mmHg 59%
06:00 +13°C° 0 mm 1 mps 561 mmHg 55%
07:00 +14°C° 0 mm 1 mps 562 mmHg 51%
08:00 +15°C° 0 mm 1 mps 563 mmHg 47%
09:00 +18°C° 0 mm 1 mps 563 mmHg 41%
10:00 +20°C° 0 mm 1 mps 564 mmHg 34%
11:00 +21°C° 0 mm 1 mps 565 mmHg 27%
12:00 +22°C° 0 mm 1 mps 564 mmHg 27%
13:00 +23°C° 0 mm 2 mps 564 mmHg 26%
14:00 +23°C° 0 mm 2 mps 563 mmHg 25%
15:00 +21°C° 0 mm 2 mps 563 mmHg 30%
16:00 +20°C° 0 mm 3 mps 562 mmHg 35%
17:00 +19°C° 0 mm 3 mps 562 mmHg 40%
18:00 +17°C° 0 mm 3 mps 562 mmHg 45%
19:00 +16°C° 0 mm 2 mps 562 mmHg 51%
20:00 +15°C° 0 mm 2 mps 562 mmHg 56%
21:00 +15°C° 0 mm 1 mps 562 mmHg 57%
22:00 +14°C° 0 mm 1 mps 561 mmHg 59%
23:00 +14°C° 0 mm 1 mps 561 mmHg 60%
Show more